Location: Krakow
(50.0830°N, 19.9170°E)
Time: 10:59:15
(UTC+01:00)

Transit 2A - Pass Details

Date: 08 February 2023
Orbit: 591 x 964 km, 66.7° (Epoch: 21 March)

Event Time Altitude Azimuth Distance (km) Brightness Sun altitude
Rises 16:13:59 0° 221° (SW) 3,032 10.7 3.8°
Reaches altitude 10° 16:16:12 10° 223° (SW) 2,171 10.1 3.4°
Maximum altitude 16:21:10 74° 309° (NW) 797 6.3 2.7°
Drops below altitude 10° 16:26:45 10° 35° (NE) 2,437 8.1 1.9°
Sets 16:29:21 0° 37° (NE) 3,435 8.8 1.6°
